�ϑ��N����,2022�N9��28��,,,
�ϑ���,�����@�I��,,,
�ϑ��n�_,3,,,
���x�v�ԍ�,A034 ,,,
,,,,
����,�C��,����,����,���l
9:30:00,23.7,0,0,
9:31:00,23.7,5,0.5,
9:32:00,23.8,5,0.5,
9:33:00,23.8,0,0,
9:34:00,23.8,0,0,
9:35:00,23.9,6,0.5,
9:36:00,23.9,0,0,
9:37:00,23.9,5,0.5,
9:38:00,23.9,6,0.5,
9:39:00,23.9,0,0,
9:40:00,23.8,0,0,
9:41:00,23.9,0,0,
9:42:00,23.9,0,0,
9:43:00,24,4,0.5,
9:44:00,24,0,0,
9:45:00,24,4,0.8,
9:46:00,24,5,0.7,
9:47:00,24,0,0,
9:48:00,24.1,0,0,
9:49:00,24.1,0,0,
9:50:00,24.1,0,0,
9:51:00,24.2,4,0.7,
9:52:00,24.2,0,0,
9:53:00,24.2,0,0,
9:54:00,24.2,5,0.5,
9:55:00,24.1,6,0.6,
9:56:00,24.1,6,0.5,
9:57:00,24.2,0,0,
9:58:00,24.2,0,0,
9:59:00,24.3,0,0,
10:00:00,24.3,5,0.4,
10:01:00,24.3,0,0,
10:02:00,24.4,0,0,
10:03:00,24.4,5,0.7,
10:04:00,24.4,0,0,
10:05:00,24.4,0,0,
10:06:00,24.5,0,0,
10:07:00,24.6,0,0,
10:08:00,24.7,0,0,
10:09:00,24.8,0,0,
10:10:00,24.8,0,0,
10:11:00,24.8,5,0.6,
10:12:00,25,4,1,
10:13:00,25,0,0,
10:14:00,25.1,5,0.5,
10:15:00,25.1,0,0,
10:16:00,25.1,0,0,
10:17:00,25.1,5,0.4,
10:18:00,25.1,4,0.3,
10:19:00,25.2,0,0,
10:20:00,25.2,0,0,
10:21:00,25.3,0,0,
10:22:00,25.3,6,0.4,
10:23:00,25.3,0,0,
10:24:00,25.3,7,0.4,
10:25:00,25.3,0,0,
10:26:00,25.3,0,0,
10:27:00,25.4,6,0.3,
10:28:00,25.4,8,0.4,
10:29:00,25.4,0,0,
10:30:00,25.4,7,0.5,
10:31:00,25.4,6,0.3,
10:32:00,25.4,8,0.4,
10:33:00,25.4,0,0,
10:34:00,25.4,0,0,
10:35:00,25.5,4,0.5,
10:36:00,25.5,0,0,
10:37:00,25.5,7,0.6,���z���_����o�Ă���
10:38:00,25.5,0,0,
10:39:00,25.5,0,0,
10:40:00,25.6,0,0,
10:41:00,25.5,4,1,
10:42:00,25.6,7,0.2,
10:43:00,25.6,0,0,
10:44:00,25.6,0,0,
10:45:00,25.6,0,0,
10:46:00,25.7,0,0,
10:47:00,25.7,0,0,
10:48:00,25.7,0,0,
10:49:00,25.7,7,0.2,
10:50:00,25.7,7,0.3,
10:51:00,25.6,0,0,
10:52:00,25.7,6,0.2,
10:53:00,25.7,0,0,�_�ɑ��z���B�ꂽ
10:54:00,25.8,0,0,
10:55:00,25.8,0,0,
10:56:00,25.8,0,0,
10:57:00,25.8,0,0,
10:58:00,25.9,0,0,���z���_����o�Ă���
10:59:00,25.9,0,0,
11:00:00,25.9,4,0.3,
11:01:00,25.9,4,0.3,
11:02:00,25.9,0,0,
11:03:00,25.9,0,0,
11:04:00,26,0,0,
11:05:00,25.9,0,0,
11:06:00,26,0,0,
11:07:00,26,7,0.2,
11:08:00,26,7,0.2,
11:09:00,26,0,0,
11:10:00,26,0,0,
11:11:00,26,0,0,
11:12:00,26,7,0.2,
11:13:00,26,5,0.2,
11:14:00,26,0,0,
11:15:00,26.1,4,0.6,
11:16:00,26.1,0,0,
11:17:00,26.1,0,0,�_�ɑ��z���B�ꂽ
11:18:00,26.1,4,0.4,
11:19:00,26.1,4,0.3,
11:20:00,26.1,5,0.4,
11:21:00,26,4,1.3,
11:22:00,26,4,1.4,
11:23:00,25.9,4,1.3,
11:24:00,25.9,7,0.9,
11:25:00,25.9,7,0.5,
11:26:00,25.9,0,0,
11:27:00,25.9,0,0,
11:28:00,26,4,0.6,
11:29:00,26,4,0.5,
11:30:00,26,5,1.2,
